Date_and_time,latitude,longitude,wind_speed,RelWindDirFrom,WindDirFrom,air_pressure,air_temperature,relative_humidity,Temp,platform_speed_wrt_ground,air_pressure_at_mean_sea_level,platform_orientation
2019-02-13 23:50,50.63045,-96.9807833333333,1.2,2.1,56,979.65,-15.5,91,0.53,0.0,1008.97,270.0
2019-02-14 00:00,50.6304483333333,-96.9807816666667,1.2,2.1,52,979.64,-15.5,91,0.52,0.0,1008.96,252.3
2019-02-14 00:00,50.6304483333333,-96.9807816666667,1.8,1.8,56,979.62,-15.5,91,0.52,0.0,1008.95,293.6
2019-02-14 00:10,50.6304483333333,-96.9807783333333,1.8,2.2,54,979.60,-15.5,92,0.51,0.0,1008.93,293.6
2019-02-14 00:20,50.6304483333333,-96.9807766666667,1.8,2.5,61,979.61,-15.5,93,0.52,0.0,1008.91,293.6
2019-02-14 00:30,50.63048,-96.980775,1.5,2.4,72,979.57,-15.4,93,0.53,0.0,1008.83,293.6
2019-02-14 00:40,50.6304433333333,-96.98077,0.3,1.2,68,979.68,-15.4,93,0.52,0.0,1008.96,293.6
2019-02-14 00:50,50.63044,-96.9807666666667,0.8,2.5,347,979.68,-15.4,93,0.53,0.0,1008.97,293.6
2019-02-14 01:00,50.6304383333333,-96.9807633333333,2.7,3.2,342,979.53,-15.6,94,0.53,0.0,1008.84,103.7
2019-02-14 01:10,50.6304416666667,-96.98077,2.5,3.6,324,979.49,-15.6,94,0.53,0.0,1008.81,103.7
2019-02-14 01:20,50.6304416666667,-96.98077,2.8,3.8,324,979.41,-15.6,94,0.53,0.0,1008.73,103.7
2019-02-14 01:30,50.6304433333333,-96.9807716666667,3.0,4.4,330,979.31,-15.6,94,0.54,0.0,1008.62,103.7
2019-02-14 01:40,50.6304433333333,-96.9807716666667,2.5,3.7,319,979.28,-15.6,94,0.54,0.0,1008.59,103.7
2019-02-14 01:50,50.6304433333333,-96.98077,1.9,3.3,318,979.18,-15.5,94,0.55,0.0,1008.49,103.7
2019-02-14 02:00,50.6304416666667,-96.98077,2.1,2.6,322,979.11,-15.4,94,0.55,0.0,1008.40,113.6
2019-02-14 02:10,50.6304416666667,-96.98077,3.1,3.9,315,979.08,-15.4,95,0.55,0.0,1008.37,113.6
2019-02-14 02:20,50.6304416666667,-96.9807683333333,3.0,4.2,312,979.02,-15.4,95,0.55,0.0,1008.31,113.6
2019-02-14 02:30,50.6304416666667,-96.9807683333333,2.9,4.6,314,978.92,-15.3,95,0.56,0.0,1008.20,113.6
2019-02-14 02:40,50.6304433333333,-96.9807683333333,2.8,4.0,318,978.86,-15.3,95,0.56,0.0,1008.13,113.6
2019-02-14 02:50,50.6304416666667,-96.980715,3.4,4.3,334,978.67,-15.2,94,0.55,0.0,1007.94,113.6
2019-02-14 03:00,50.6304316666667,-96.98076,3.3,4.1,335,978.59,-15.2,94,0.55,0.0,1007.86,131.6
2019-02-14 03:10,50.630445,-96.98078,3.2,4.3,327,978.58,-15.2,94,0.55,0.0,1007.85,131.6
2019-02-14 03:20,50.6304466666667,-96.9807783333333,4.0,5.6,321,978.56,-15.1,95,0.55,0.0,1007.83,131.6
2019-02-14 03:30,50.6304433333333,-96.9807733333333,5.2,8.9,315,978.53,-15.1,95,0.55,0.0,1007.80,131.6
2019-02-14 03:40,50.6304433333333,-96.9807716666667,5.7,8.1,315,978.52,-15.0,95,0.56,0.0,1007.78,131.6
2019-02-14 03:50,50.630445,-96.98077,6.1,8.0,312,978.50,-15.0,94,0.55,0.0,1007.75,131.6
2019-02-14 04:00,50.630445,-96.9807683333333,7.0,9.9,312,978.41,-15.0,94,0.55,0.0,1007.65,90.0
2019-02-14 04:10,50.630445,-96.9807683333333,6.6,10.4,310,978.47,-14.9,94,0.54,0.0,1007.71,90.0
2019-02-14 04:20,50.6304583333333,-96.98077,6.8,9.6,312,978.41,-14.9,93,0.52,0.0,1007.65,90.0
2019-02-14 04:30,50.6304383333333,-96.9807883333333,6.2,9.2,315,978.43,-14.9,93,0.53,0.0,1007.66,90.0
2019-02-14 04:40,50.6304383333333,-96.9807616666667,7.9,11.6,320,978.36,-14.9,92,0.54,0.0,1007.58,90.0
2019-02-14 04:50,50.6304383333333,-96.9807633333333,7.7,11.9,318,978.48,-15.0,91,0.54,0.0,1007.72,90.0
2019-02-14 05:00,50.6304433333333,-96.9807616666667,7.6,12.8,318,978.61,-15.1,92,0.55,0.0,1007.85,90.0
2019-02-14 05:10,50.6304433333333,-96.9807616666667,8.3,12.0,319,978.61,-15.3,91,0.55,0.0,1007.86,90.0
2019-02-14 05:20,50.63043,-96.9807766666667,7.8,12.0,331,978.64,-15.6,91,0.55,0.0,1007.91,90.0
2019-02-14 05:30,50.630455,-96.9807966666667,9.2,12.8,339,978.63,-15.8,90,0.54,0.0,1007.90,90.0
2019-02-14 05:40,50.6304483333333,-96.9807816666667,9.1,12.6,340,978.79,-16.1,89,0.55,0.0,1008.09,90.0
2019-02-14 05:50,50.630445,-96.980785,8.7,11.3,338,978.87,-16.4,89,0.55,0.0,1008.19,90.0
2019-02-14 06:00,50.6304483333333,-96.98078,8.9,12.7,336,978.92,-16.8,89,0.55,0.0,1008.26,311.6
2019-02-14 06:10,50.6304483333333,-96.9807783333333,9.0,12.1,336,978.95,-17.1,87,0.55,0.0,1008.31,311.6
2019-02-14 06:20,50.630435,-96.9807666666667,9.0,13.1,333,978.98,-17.4,86,0.55,0.0,1008.35,311.6
2019-02-14 06:30,50.6304483333333,-96.9807733333333,9.5,14.7,335,979.06,-17.6,85,0.56,0.0,1008.45,311.6
2019-02-14 06:40,50.63045,-96.9807666666667,8.8,12.1,334,979.12,-17.8,85,0.56,0.0,1008.53,311.6
2019-02-14 06:50,50.6304633333333,-96.98079,9.4,13.3,334,979.12,-17.9,85,0.55,0.0,1008.53,311.6
2019-02-14 07:00,50.6304433333333,-96.9807766666667,9.7,12.5,331,979.13,-18.1,85,0.55,0.0,1008.57,270.0
2019-02-14 07:10,50.630445,-96.980775,8.8,12.0,331,979.11,-18.3,86,0.55,0.0,1008.58,270.0
2019-02-14 07:20,50.63044,-96.98076,8.8,13.0,326,979.23,-18.4,86,0.54,0.0,1008.72,270.0
2019-02-14 07:30,50.6304416666667,-96.9807583333333,7.4,11.6,318,979.42,-18.7,86,0.53,0.0,1008.95,270.0
2019-02-14 07:40,50.6304416666667,-96.9807583333333,8.3,10.7,315,979.44,-19.0,86,0.54,0.0,1009.01,270.0
2019-02-14 07:50,50.6304433333333,-96.9807616666667,8.1,11.9,315,979.51,-19.2,87,0.54,0.0,1009.11,270.0
2019-02-14 08:00,50.6304433333333,-96.980765,7.2,10.2,312,979.62,-19.4,88,0.54,0.0,1009.25,270.0
2019-02-14 08:10,50.6304466666667,-96.980755,7.3,10.5,315,979.59,-19.5,89,0.54,0.0,1009.24,270.0
2019-02-14 08:20,50.63044,-96.9807666666667,6.5,9.9,312,979.64,-19.6,88,0.54,0.0,1009.32,270.0
2019-02-14 08:30,50.6304483333333,-96.9807616666667,7.2,11.2,316,979.59,-19.8,87,0.54,0.0,1009.29,270.0
2019-02-14 08:40,50.63045,-96.980755,7.3,10.2,318,979.59,-19.9,85,0.54,0.0,1009.30,270.0
2019-02-14 08:50,50.6304516666667,-96.9807583333333,8.1,11.1,318,979.57,-20.0,84,0.54,0.0,1009.29,270.0
2019-02-14 09:00,50.6304533333333,-96.9807616666667,8.7,12.7,312,979.65,-20.0,84,0.54,0.0,1009.40,73.2
2019-02-14 09:10,50.630455,-96.9807616666667,9.4,13.3,309,979.72,-20.2,83,0.53,0.0,1009.49,73.2
2019-02-14 09:20,50.630465,-96.9807833333333,9.6,13.6,309,979.78,-20.4,82,0.53,0.0,1009.57,73.2
2019-02-14 09:30,50.63046,-96.9807766666667,8.9,12.2,312,979.92,-20.5,83,0.53,0.0,1009.74,73.2
2019-02-14 09:40,50.6304583333333,-96.9807766666667,8.7,12.3,317,979.98,-20.6,84,0.53,0.0,1009.82,73.2
2019-02-14 09:50,50.6304533333333,-96.9807616666667,7.9,10.7,314,980.10,-20.7,84,0.53,0.0,1009.97,73.2
2019-02-14 10:00,50.6304583333333,-96.98077,7.1,10.5,311,980.30,-20.9,84,0.52,0.0,1010.18,360.0
2019-02-14 10:10,50.6304583333333,-96.9807716666667,6.9,9.3,307,980.37,-21.1,83,0.52,0.0,1010.28,360.0
2019-02-14 10:20,50.6304383333333,-96.9807833333333,6.7,9.3,303,980.51,-21.1,83,0.52,0.0,1010.43,360.0
2019-02-14 10:30,50.6304483333333,-96.98078,6.6,10.4,301,980.58,-21.3,83,0.52,0.0,1010.52,360.0
2019-02-14 10:40,50.6304533333333,-96.9807783333333,8.2,12.0,306,980.44,-21.3,83,0.52,0.0,1010.39,360.0
2019-02-14 10:50,50.6304516666667,-96.9807733333333,9.0,12.9,304,980.49,-21.3,82,0.52,0.0,1010.44,360.0
2019-02-14 11:00,50.6304483333333,-96.98078,8.0,11.6,305,980.65,-21.3,82,0.52,0.0,1010.62,293.6
2019-02-14 11:10,50.630455,-96.9807716666667,7.9,10.9,305,980.80,-21.4,82,0.52,0.0,1010.79,293.6
2019-02-14 11:20,50.6304566666667,-96.9808,7.5,10.3,300,981.00,-21.5,82,0.52,0.0,1011.01,293.6
2019-02-14 11:30,50.630455,-96.9807733333333,7.3,10.5,298,981.21,-21.6,82,0.52,0.0,1011.24,293.6
2019-02-14 11:40,50.6304533333333,-96.9807783333333,7.3,10.5,298,981.42,-21.7,82,0.52,0.0,1011.46,293.6
2019-02-14 11:50,50.6304516666667,-96.9807733333333,7.5,12.8,301,981.61,-21.8,82,0.52,0.0,1011.68,293.6
2019-02-14 12:00,50.63045,-96.9807716666667,8.2,11.8,304,981.66,-22.0,82,0.51,0.0,1011.75,270.0
2019-02-14 12:10,50.6304516666667,-96.9807716666667,8.1,11.3,301,981.70,-22.1,82,0.51,0.0,1011.80,270.0
2019-02-14 12:20,50.630455,-96.9807716666667,6.9,10.2,300,981.86,-22.1,82,0.51,0.0,1011.97,270.0
2019-02-14 12:30,50.6304483333333,-96.9807683333333,6.0,10.0,302,981.95,-22.1,83,0.51,0.0,1012.07,270.0
2019-02-14 12:40,50.6304583333333,-96.9807716666667,6.0,9.7,308,981.95,-21.8,83,0.51,0.0,1012.06,270.0
2019-02-14 12:50,50.630465,-96.980785,6.7,10.6,306,982.01,-21.5,83,0.51,0.0,1012.09,270.0
2019-02-14 13:00,50.63044,-96.98077,8.7,12.9,305,982.01,-21.1,83,0.51,0.0,1012.08,161.1
2019-02-14 13:10,50.630445,-96.9807783333333,8.7,12.6,301,982.20,-20.8,83,0.50,0.0,1012.26,161.1
2019-02-14 13:20,50.6304466666667,-96.9807733333333,8.9,12.3,302,982.33,-20.6,82,0.50,0.0,1012.40,161.1
2019-02-14 13:30,50.6304483333333,-96.98077,9.3,14.8,302,982.39,-20.4,82,0.49,0.0,1012.45,161.1
2019-02-14 13:40,50.6304483333333,-96.98077,10.4,14.7,297,982.49,-20.2,81,0.49,0.0,1012.54,161.1
2019-02-14 13:50,50.63043,-96.9807066666667,9.7,15.5,294,982.67,-20.1,81,0.49,0.0,1012.73,161.1
2019-02-14 14:00,50.6304416666667,-96.9807616666667,9.5,14.9,294,982.77,-20.0,81,0.49,0.0,1012.83,107.7
2019-02-14 14:10,50.6304483333333,-96.98076,9.3,13.6,294,982.83,-19.7,81,0.49,0.0,1012.89,107.7
2019-02-14 14:20,50.6304483333333,-96.9807616666667,9.5,14.9,294,982.92,-19.5,81,0.49,0.0,1012.96,107.7
2019-02-14 14:30,50.6304483333333,-96.9807616666667,10.6,15.2,297,982.99,-19.3,81,0.49,0.0,1013.00,107.7
2019-02-14 14:40,50.6304466666667,-96.9807616666667,10.5,16.1,300,983.11,-19.0,81,0.49,0.0,1013.09,107.7
2019-02-14 14:50,50.6304466666667,-96.9807633333333,10.4,15.2,298,983.24,-18.8,80,0.48,0.0,1013.19,107.7
2019-02-14 15:00,50.630435,-96.98077,10.2,15.3,303,983.27,-18.7,80,0.48,0.0,1013.19,360.0
2019-02-14 15:10,50.630445,-96.98077,9.9,13.8,302,983.38,-18.5,79,0.48,0.0,1013.28,360.0
2019-02-14 15:20,50.63044,-96.9807566666667,9.6,15.0,302,983.53,-18.2,79,0.48,0.0,1013.41,360.0
2019-02-14 15:30,50.6304466666667,-96.98076,10.1,15.2,304,983.56,-17.8,79,0.48,0.0,1013.41,360.0
2019-02-14 15:40,50.6304433333333,-96.98076,9.6,16.1,305,983.76,-17.7,79,0.48,0.0,1013.60,360.0
2019-02-14 15:50,50.6304433333333,-96.98076,10.9,15.7,305,983.73,-17.6,78,0.48,0.0,1013.55,360.0
2019-02-14 16:00,50.630445,-96.9807633333333,9.5,13.7,307,983.91,-17.4,78,0.48,0.0,1013.71,90.0
2019-02-14 16:10,50.630445,-96.9807616666667,9.8,15.5,311,983.98,-17.2,78,0.48,0.0,1013.76,90.0
2019-02-14 16:20,50.630445,-96.9807633333333,11.5,21.1,309,984.04,-17.1,77,0.48,0.0,1013.80,90.0
2019-02-14 16:30,50.630445,-96.980765,11.9,18.6,308,984.11,-17.0,76,0.48,0.0,1013.85,90.0
2019-02-14 16:40,50.630445,-96.9807633333333,12.1,18.3,307,984.09,-17.0,75,0.48,0.0,1013.82,90.0
2019-02-14 16:50,50.630445,-96.980765,11.1,17.1,308,984.25,-16.9,74,0.48,0.0,1013.97,90.0
2019-02-14 17:00,50.63046,-96.9807816666667,11.4,17.3,302,984.36,-16.7,73,0.48,0.0,1014.06,317.0
2019-02-14 17:10,50.630455,-96.9807683333333,11.6,16.6,303,984.51,-16.6,73,0.48,0.0,1014.19,317.0
2019-02-14 17:20,50.6304516666667,-96.9807666666667,10.6,16.1,302,984.65,-16.6,73,0.48,0.0,1014.32,317.0
2019-02-14 17:30,50.6304516666667,-96.9807683333333,10.7,15.2,307,984.80,-16.5,72,0.48,0.0,1014.46,317.0
2019-02-14 17:40,50.63045,-96.9807666666667,11.2,16.9,300,984.94,-16.5,72,0.48,0.0,1014.59,317.0
2019-02-14 17:50,50.63045,-96.9807683333333,11.2,16.6,304,984.96,-16.4,71,0.48,0.0,1014.59,317.0
2019-02-14 18:00,50.63045,-96.9807683333333,10.4,14.1,309,985.11,-16.3,71,0.48,0.0,1014.73,360.0
2019-02-14 18:10,50.630445,-96.9807816666667,11.7,17.9,303,985.03,-16.2,70,0.48,0.0,1014.64,360.0
2019-02-14 18:20,50.6304466666667,-96.9807766666667,10.7,17.1,296,985.10,-16.1,70,0.48,0.0,1014.70,360.0
2019-02-14 18:30,50.6304466666667,-96.9807766666667,10.6,16.1,303,985.17,-15.9,69,0.48,0.0,1014.76,360.0
2019-02-14 18:40,50.6304483333333,-96.9807766666667,11.8,17.6,302,985.16,-15.9,68,0.48,0.0,1014.74,360.0
2019-02-14 18:50,50.6304483333333,-96.980775,13.0,18.5,299,985.25,-16.0,68,0.48,0.0,1014.83,360.0
2019-02-14 19:00,50.63045,-96.9807733333333,11.3,16.6,306,985.42,-15.9,68,0.48,0.0,1015.00,360.0
2019-02-14 19:10,50.6304583333333,-96.9807683333333,11.1,17.2,309,985.46,-15.7,68,0.48,0.0,1015.02,360.0
2019-02-14 19:20,50.6304516666667,-96.9807633333333,12.8,18.7,309,985.42,-15.8,68,0.48,0.0,1014.98,360.0
2019-02-14 19:30,50.63045,-96.9807583333333,12.8,17.9,305,985.51,-15.7,67,0.48,0.0,1015.07,360.0
2019-02-14 19:40,50.6304516666667,-96.9807583333333,10.3,16.8,311,985.64,-15.2,66,0.48,0.0,1015.17,360.0
2019-02-14 19:50,50.6304566666667,-96.980755,10.9,16.9,313,985.65,-15.1,65,0.48,0.0,1015.17,360.0
2019-02-14 20:00,50.6304566666667,-96.9807433333333,11.0,15.3,304,985.71,-15.2,66,0.48,0.0,1015.24,101.8
2019-02-14 20:10,50.6304566666667,-96.9807416666667,9.5,14.5,303,985.83,-15.2,66,0.48,0.0,1015.35,101.8
2019-02-14 20:20,50.630465,-96.9807633333333,9.6,15.9,307,985.91,-14.8,65,0.48,0.0,1015.39,101.8
2019-02-14 20:30,50.6304633333333,-96.980745,12.4,18.3,311,985.83,-15.1,65,0.48,0.0,1015.33,101.8
2019-02-14 20:40,50.6304583333333,-96.980745,11.9,18.3,308,985.85,-15.0,65,0.48,0.0,1015.35,101.8
2019-02-14 20:50,50.6304583333333,-96.98075,10.4,15.4,312,985.92,-14.9,65,0.48,0.0,1015.42,101.8
2019-02-14 21:00,50.6304583333333,-96.9807516666667,12.3,19.6,312,985.83,-14.7,63,0.48,0.0,1015.30,60.8
2019-02-14 21:10,50.6304583333333,-96.9807666666667,10.8,17.1,311,985.98,-14.5,63,0.48,0.0,1015.45,60.8
2019-02-14 21:20,50.6304633333333,-96.98077,11.3,16.6,308,985.96,-14.3,62,0.48,0.0,1015.41,60.8
2019-02-14 21:30,50.6304616666667,-96.9807683333333,11.8,16.9,309,986.05,-14.4,62,0.48,0.0,1015.47,60.8
2019-02-14 21:40,50.63046,-96.980765,10.0,15.1,309,986.32,-14.4,63,0.47,0.0,1015.75,60.8
2019-02-14 21:50,50.6304566666667,-96.9807633333333,11.1,17.1,309,986.31,-14.3,62,0.45,0.0,1015.73,60.8
2019-02-14 22:00,50.6304566666667,-96.980765,10.8,16.1,310,986.39,-14.1,62,0.44,0.0,1015.82,90.0
2019-02-14 22:10,50.6304633333333,-96.980785,11.5,17.8,308,986.33,-14.1,62,0.45,0.0,1015.72,90.0
2019-02-14 22:20,50.6304566666667,-96.9807783333333,10.7,16.6,302,986.37,-14.1,62,0.46,0.0,1015.79,90.0
2019-02-14 22:30,50.6304366666667,-96.9807316666667,11.6,16.4,306,986.44,-14.1,62,0.47,0.0,1015.85,90.0
2019-02-14 22:40,50.630445,-96.9807683333333,9.4,15.9,300,986.72,-14.1,62,0.48,0.0,1016.13,90.0
2019-02-14 22:50,50.630445,-96.9807666666667,8.6,11.6,302,986.82,-14.2,62,0.48,0.0,1016.23,90.0
2019-02-14 23:00,50.6304516666667,-96.9807816666667,10.2,17.6,302,986.87,-14.3,62,0.48,0.0,1016.28,270.0
2019-02-14 23:10,50.6304466666667,-96.9807733333333,10.4,17.2,304,986.98,-14.4,63,0.48,0.0,1016.38,270.0
2019-02-14 23:20,50.630445,-96.9807733333333,9.9,15.1,300,987.10,-14.7,65,0.47,0.0,1016.53,270.0
2019-02-14 23:30,50.6304433333333,-96.9807733333333,8.2,12.1,302,987.30,-15.1,66,0.48,0.0,1016.76,270.0
